| time (UTC) | temp F | wind direction | speed knots | gust knots | rain 1hr in | rain 24hr in | rain mn in | humidity % | barometer mb |
| 20260508013041 | 31 | 111 | 0.0 | 1.7 | 0.00 | 0.00 | 0.00 | 83 | 1020.7 |
| 20260508011541 | 30 | 116 | 0.0 | 0.0 | 0.00 | 0.00 | 0.00 | 81 | 1020.4 |
| 20260508010141 | 32 | 116 | 0.0 | 0.0 | 0.00 | 0.00 | 0.00 | 79 | 1020.4 |
| 20260508004548 | 33 | 116 | 0.0 | 0.0 | 0.00 | 0.00 | 0.00 | 79 | 1020.3 |
| 20260508003048 | 33 | 117 | 0.9 | 4.3 | 0.00 | 0.00 | 0.00 | 82 | 1020.2 |
| 20260508001545 | 32 | 59 | 0.0 | 0.0 | 0.00 | 0.00 | 0.00 | 81 | 1020.0 |
| 20260508000139 | 31 | 58 | 0.0 | 0.0 | 0.00 | 0.00 | 0.00 | 81 | 1019.9 |
| 20260507234550 | 31 | 58 | 0.0 | 0.0 | 0.00 | 0.00 | 0.00 | 80 | 1019.9 |
| 20260507233139 | 32 | 58 | 0.0 | 0.0 | 0.00 | 0.00 | 0.00 | 77 | 1019.7 |
| 20260507231546 | 34 | 58 | 0.0 | 0.0 | 0.00 | 0.00 | 0.00 | 75 | 1019.6 |
| 20260507230046 | 34 | 58 | 0.0 | 0.0 | 0.00 | 0.00 | 0.00 | 72 | 1019.3 |
| 20260507224544 | 35 | 58 | 0.0 | 0.0 | 0.00 | 0.00 | 0.00 | 70 | 1019.2 |
| 20260507223139 | 35 | 58 | 0.0 | 0.0 | 0.00 | 0.00 | 0.00 | 69 | 1019.2 |
| 20260507221542 | 36 | 58 | 0.0 | 0.0 | 0.00 | 0.00 | 0.00 | 66 | 1019.2 |
| 20260507220043 | 37 | 58 | 0.0 | 0.9 | 0.00 | 0.00 | 0.00 | 63 | 1019.0 |
| 20260507214544 | 38 | 76 | 0.0 | 1.7 | 0.00 | 0.00 | 0.00 | 62 | 1018.8 |
| 20260507213141 | 38 | 26 | 0.0 | 0.9 | 0.00 | 0.00 | 0.00 | 62 | 1018.8 |
| 20260507211547 | 40 | 26 | 0.0 | 0.0 | 0.00 | 0.00 | 0.00 | 61 | 1018.6 |
| 20260507204547 | 42 | 26 | 0.0 | 0.0 | 0.00 | 0.00 | 0.00 | 58 | 1018.3 |
| 20260507203039 | 43 | 26 | 0.0 | 0.0 | 0.00 | 0.00 | 0.00 | 55 | 1018.1 |
| 20260507201544 | 44 | 26 | 0.0 | 0.0 | 0.00 | 0.00 | 0.00 | 54 | 1017.9 |
| 20260507200051 | 45 | 25 | 0.0 | 0.0 | 0.00 | 0.00 | 0.00 | 51 | 1017.8 |
| 20260507194550 | 46 | 25 | 0.0 | 0.0 | 0.00 | 0.00 | 0.00 | 48 | 1017.7 |
| 20260507193042 | 49 | 25 | 0.0 | 0.9 | 0.00 | 0.00 | 0.00 | 43 | 1017.5 |
| 20260507191547 | 50 | 24 | 0.9 | 1.7 | 0.00 | 0.00 | 0.00 | 40 | 1017.2 |
| 20260507190140 | 52 | 313 | 0.0 | 1.7 | 0.00 | 0.00 | 0.00 | 38 | 1017.1 |
| 20260507184546 | 53 | 313 | 0.0 | 1.7 | 0.00 | 0.00 | 0.00 | 37 | 1017.0 |
| 20260507183102 | 53 | 301 | 0.9 | 2.6 | 0.00 | 0.00 | 0.00 | 38 | 1016.8 |
| 20260507181545 | 55 | 305 | 2.6 | 4.3 | 0.00 | 0.00 | 0.00 | 35 | 1016.8 |
| 20260507180140 | 55 | 318 | 1.7 | 2.6 | 0.00 | 0.00 | 0.00 | 35 | 1016.8 |
| 20260507174550 | 56 | 298 | 1.7 | 2.6 | 0.00 | 0.00 | 0.00 | 32 | 1016.7 |
| 20260507173046 | 55 | 306 | 2.6 | 4.3 | 0.00 | 0.00 | 0.00 | 29 | 1016.5 |
| 20260507171543 | 56 | 288 | 2.6 | 5.2 | 0.00 | 0.00 | 0.00 | 28 | 1016.5 |
| 20260507170043 | 57 | 277 | 4.3 | 6.1 | 0.00 | 0.00 | 0.00 | 25 | 1016.3 |
| 20260507164558 | 57 | 5 | 2.6 | 6.1 | 0.00 | 0.00 | 0.00 | 24 | 1016.3 |
| 20260507163040 | 58 | 336 | 4.3 | 7.0 | 0.00 | 0.00 | 0.00 | 27 | 1016.2 |
| 20260507161553 | 57 | 316 | 2.6 | 7.0 | 0.00 | 0.00 | 0.00 | 28 | 1016.2 |
| 20260507160040 | 58 | 346 | 0.9 | 7.8 | 0.00 | 0.00 | 0.00 | 28 | 1016.1 |
| 20260507154543 | 58 | 322 | 3.5 | 7.8 | 0.00 | 0.00 | 0.00 | 28 | 1016.1 |
| 20260507153043 | 58 | 344 | 4.3 | 7.0 | 0.00 | 0.00 | 0.00 | 30 | 1016.1 |
| 20260507151540 | 57 | 302 | 3.5 | 7.0 | 0.00 | 0.00 | 0.00 | 30 | 1016.0 |
| 20260507150139 | 57 | 301 | 4.3 | 7.8 | 0.00 | 0.00 | 0.00 | 29 | 1016.0 |
| 20260507144540 | 57 | 309 | 4.3 | 10.4 | 0.00 | 0.00 | 0.00 | 29 | 1016.0 |
| 20260507143046 | 56 | 306 | 3.5 | 8.7 | 0.00 | 0.00 | 0.00 | 27 | 1016.1 |
| 20260507140043 | 56 | 277 | 5.2 | 9.6 | 0.00 | 0.00 | 0.00 | 27 | 1015.9 |
| 20260507134545 | 56 | 304 | 4.3 | 12.2 | 0.00 | 0.00 | 0.00 | 29 | 1015.8 |
| 20260507133046 | 55 | 360 | 6.1 | 10.4 | 0.00 | 0.00 | 0.00 | 30 | 1015.8 |
| 20260507131543 | 56 | 309 | 7.0 | 11.3 | 0.00 | 0.00 | 0.00 | 28 | 1015.7 |
| 20260507130142 | 56 | 344 | 7.0 | 10.4 | 0.00 | 0.00 | 0.00 | 29 | 1015.7 |
| 20260507124546 | 56 | 300 | 4.3 | 11.3 | 0.00 | 0.00 | 0.00 | 31 | 1015.6 |
| 20260507123043 | 56 | 292 | 7.0 | 12.2 | 0.00 | 0.00 | 0.00 | 31 | 1015.5 |
| 20260507121543 | 56 | 322 | 3.5 | 13.0 | 0.00 | 0.00 | 0.00 | 33 | 1015.3 |
| 20260507120040 | 56 | 300 | 4.3 | 10.4 | 0.00 | 0.00 | 0.00 | 33 | 1015.3 |
| 20260507114556 | 55 | 338 | 4.3 | 13.0 | 0.00 | 0.00 | 0.00 | 38 | 1015.3 |
| 20260507113101 | 55 | 292 | 6.1 | 10.4 | 0.00 | 0.00 | 0.00 | 38 | 1015.2 |
| 20260507111546 | 55 | 332 | 4.3 | 12.2 | 0.00 | 0.00 | 0.00 | 43 | 1015.2 |
| 20260507110043 | 54 | 304 | 4.3 | 11.3 | 0.00 | 0.00 | 0.00 | 47 | 1015.2 |
| 20260507104545 | 54 | 295 | 6.1 | 10.4 | 0.00 | 0.00 | 0.00 | 47 | 1015.1 |
| 20260507103048 | 54 | 323 | 4.3 | 11.3 | 0.00 | 0.00 | 0.00 | 46 | 1015.0 |
| 20260507101542 | 53 | 282 | 7.0 | 12.2 | 0.00 | 0.00 | 0.00 | 45 | 1014.9 |
| 20260507100039 | 53 | 264 | 7.8 | 12.2 | 0.00 | 0.00 | 0.00 | 45 | 1014.7 |
| 20260507094541 | 53 | 306 | 5.2 | 11.3 | 0.00 | 0.00 | 0.00 | 43 | 1014.6 |
| 20260507093038 | 53 | 330 | 5.2 | 11.3 | 0.00 | 0.00 | 0.00 | 45 | 1014.5 |
| 20260507091543 | 53 | 311 | 4.3 | 10.4 | 0.00 | 0.00 | 0.00 | 43 | 1014.5 |
| 20260507090140 | 52 | 285 | 7.0 | 10.4 | 0.00 | 0.00 | 0.00 | 49 | 1014.4 |
| 20260507084546 | 53 | 296 | 5.2 | 10.4 | 0.00 | 0.00 | 0.00 | 56 | 1014.4 |
| 20260507083041 | 53 | 320 | 4.3 | 8.7 | 0.00 | 0.00 | 0.00 | 51 | 1014.3 |
| 20260507081544 | 52 | 303 | 1.7 | 9.6 | 0.00 | 0.00 | 0.00 | 53 | 1014.1 |
| 20260507080138 | 52 | 327 | 2.6 | 7.0 | 0.00 | 0.00 | 0.00 | 54 | 1014.0 |
| 20260507073138 | 49 | 275 | 5.2 | 7.0 | 0.00 | 0.00 | 0.00 | 63 | 1013.9 |
| 20260507071541 | 48 | 297 | 1.7 | 3.5 | 0.00 | 0.00 | 0.00 | 66 | 1013.9 |
| 20260507070137 | 47 | 312 | 2.6 | 5.2 | 0.00 | 0.00 | 0.00 | 67 | 1013.8 |
| 20260507064548 | 46 | 313 | 1.7 | 5.2 | 0.00 | 0.00 | 0.00 | 72 | 1013.7 |
| 20260507063043 | 45 | 279 | 1.7 | 4.3 | 0.00 | 0.00 | 0.00 | 75 | 1013.7 |
| 20260507061543 | 44 | 290 | 1.7 | 4.3 | 0.00 | 0.00 | 0.00 | 77 | 1013.5 |
| 20260507060138 | 42 | 316 | 1.7 | 4.3 | 0.00 | 0.00 | 0.00 | 78 | 1013.4 |
| 20260507054539 | 41 | 280 | 2.6 | 4.3 | 0.00 | 0.00 | 0.00 | 79 | 1013.3 |
| 20260507053138 | 41 | 236 | 3.5 | 5.2 | 0.00 | 0.00 | 0.00 | 80 | 1013.3 |
| 20260507051544 | 40 | 248 | 2.6 | 4.3 | 0.00 | 0.00 | 0.00 | 80 | 1013.1 |
| 20260507050042 | 39 | 210 | 1.7 | 3.5 | 0.00 | 0.00 | 0.00 | 81 | 1013.1 |
| 20260507044548 | 38 | 202 | 1.7 | 3.5 | 0.00 | 0.00 | 0.00 | 82 | 1013.0 |
| 20260507043055 | 37 | 179 | 1.7 | 4.3 | 0.00 | 0.00 | 0.00 | 82 | 1012.9 |
| 20260507041543 | 36 | 164 | 0.9 | 2.6 | 0.00 | 0.00 | 0.00 | 81 | 1012.8 |
| 20260507040042 | 36 | 138 | 0.9 | 2.6 | 0.00 | 0.00 | 0.00 | 82 | 1012.7 |
| 20260507034541 | 36 | 138 | 1.7 | 3.5 | 0.00 | 0.00 | 0.00 | 81 | 1012.5 |
| 20260507033039 | 36 | 129 | 1.7 | 3.5 | 0.00 | 0.00 | 0.00 | 81 | 1012.4 |
| 20260507031546 | 36 | 108 | 0.0 | 2.6 | 0.00 | 0.00 | 0.00 | 82 | 1012.3 |
| 20260507030039 | 36 | 96 | 1.7 | 2.6 | 0.00 | 0.00 | 0.00 | 83 | 1012.2 |
| 20260507024547 | 36 | 82 | 0.9 | 1.7 | 0.00 | 0.00 | 0.00 | 82 | 1012.1 |
| 20260507023038 | 36 | 226 | 0.0 | 3.5 | 0.00 | 0.00 | 0.00 | 79 | 1012.1 |
| 20260507021540 | 38 | 103 | 0.0 | 1.7 | 0.00 | 0.00 | 0.00 | 78 | 1012.0 |
| 20260507020049 | 38 | 100 | 0.9 | 1.7 | 0.00 | 0.00 | 0.00 | 77 | 1011.9 |
| 20260507014544 | 38 | 90 | 0.9 | 1.7 | 0.00 | 0.00 | 0.00 | 75 | 1011.7 |